Tracking 20232 objects as of 22-Jan-2020
HD Live streaming from Space Station
objects crossing your sky now

OPS 5712 (P/L 152)

Track OPS 5712 (P/L 152) now!
10-day predictions
OPS 5712 (P/L 152) is classified as:


NORAD ID: 2873
Int'l Code: 1967-053G
Perigee: 901.0 km
Apogee: 915.8 km
Inclination: 70.0 °
Period: 103.0 minutes
Semi major axis: 7279 km
RCS: 0.648 m2 (medium)
Launch date: May 31, 1967
Source: United States (US)
Launch site: AIR FORCE WESTERN TEST RANGE (AFWTR)
aabbcc
Your satellite tracking list
Your tracking list is empty




NASA's NSSDC Master Catalog

Two Line Element Set (TLE):
1  2873U 67053G   20021.52474762 +.00000005 +00000-0 +41576-4 0  9995
2  2873 069.9744 033.2318 0010163 304.0075 182.1910 13.97833229681814
Source of the keplerian elements: AFSPC